Regional Weather Roundup
Issued by NWS

Home | Current Version | Previous Version | Graphics & Text | Print | Product List | Glossary On
Versions: 1 2 3 4 5 6 7 8 9 10 11 12 13 14 15 16 17 18 19 20 21 22 23 24 25 26 27 28 29 30 31 32 33 34 35 36 37 38 39 40 41 42 43 44 45 46 47 48 49 50
000
ASUS43 KMKX 211421
RWRWI

WISCONSIN REGIONAL WEATHER ROUNDUP
NATIONAL WEATHER SERVICE MILWAUKEE/SULLIVAN WI
800 AM CST FRI NOV 21 2014

NOTE: "FAIR" INDICATES FEW OR NO CLOUDS BELOW 12,000 FEET WITH NO
SIGNIFICANT WEATHER AND/OR OBSTRUCTIONS TO VISIBILITY.

WIZ001-002-006>008-014>016-023>028-211500-
NORTHWEST WISCONSIN

CITY           SKY/WX    TMP DP  RH WIND       PRES   REMARKS
SUPERIOR ARPT  MOCLDY     6   1  79 SW3       30.17F
ASHLAND        MOCLDY     5  -1  76 S3        30.19F
HAYWARD        MOCLDY     8   3  80 S12       30.18F WCI  -7
SIREN          PTCLDY     6   2  85 S6        30.18F WCI  -5
CUMBERLAND     PTCLDY    -4  -8  84 S3        30.19S
RICE LAKE      PTCLDY     1  -3  84 SE5       30.23S WCI  -9
CHETEK         PTCLDY    -1  -4  85 E3        30.23S
LADYSMITH      MOCLDY     2  -2  85 SE5       30.24F WCI  -8
EAU CLAIRE     PTCLDY     2  -2  83 CALM      30.26F
MENOMONIE      MOCLDY     4   0  82 SE7       30.26S WCI  -8
NEW RICHMOND   CLOUDY     6   2  83 S8        30.21F WCI  -6
OSCEOLA        MOCLDY     8   3  82 SE8       30.23F WCI  -5
$$

WIZ003>005-009-010-017-018-211500-
NORTH CENTRAL WISCONSIN

CITY           SKY/WX    TMP DP  RH WIND       PRES   REMARKS
MANITOWISH WTR CLOUDY     3  -2  79 S6        30.19R WCI  -8
ARBOR VITAE    PTCLDY     3  -2  79 S5        30.20S WCI  -6
WOODRUFF       PTCLDY     3  -2  79 S5        30.20S WCI  -6
RHINELANDER    MOCLDY     3  -3  76 SW7       30.22S WCI  -9
EAGLE RIVER    MOCLDY     2  -4  75 CALM      30.20S
LAND O LAKES   MOCLDY     0  -4  85 CALM      30.20R
PHILLIPS       MOCLDY     5   0  81 S7        30.20S WCI  -7
TOMAHAWK       MOCLDY    -2  -6  84 CALM      30.24S
MEDFORD        PTCLDY     1  -3  83 S7        30.23S WCI -12
MERRILL        MOCLDY    -3  -7  84 CALM      30.27R
$$

WIZ029-030-035-036-043>047-211500-
CENTRAL WISCONSIN

CITY           SKY/WX    TMP DP  RH WIND       PRES   REMARKS
WAUSAU         MOCLDY     3  -1  83 S6        30.28R WCI  -8
MOSINEE        CLEAR      0  -2  92 S5        30.29R WCI -10
MARSHFIELD     PTCLDY     0  -4  83 S5        30.28S WCI -10
STEVENS POINT  PTCLDY     0  -4  85 CALM      30.32S
WAUPACA        PTCLDY     6   1  79 CALM      30.36S
WAUTOMA        PTCLDY    -2  -8  75 CALM      30.38R
WISC RAPIDS    PTCLDY     0  -5  79 S3        30.34R
CAMP DOUGLAS   PTCLDY     1   0  92 E5        30.34S WCI  -8
$$

WIZ011>013-019>022-031-037>040-048>050-211500-
NORTHEAST WISCONSIN

CITY           SKY/WX    TMP DP  RH WIND       PRES   REMARKS
ANTIGO         MOCLDY     0  -4  85 CALM      30.26S
SHAWANO        FAIR       9   2  75 CALM      30.36S
OCONTO         MOCLDY     7   1  75 W6        30.37R WCI  -3
STURGEON BAY   PTCLDY    14   7  73 W8        30.35R WCI   3
GREEN BAY      PTCLDY     9   2  73 SW5       30.38R WCI   1
MANITOWOC      MOCLDY    11   5  77 W6        30.39R WCI   1
APPLETON       PTCLDY     5  -2  72 VRB5      30.36R WCI  -4
CLINTONVILLE   PTCLDY     9   1  72 S5        30.36R WCI   0
OSHKOSH        MOCLDY     8   1  73 S3        30.37R
$$

WIZ032>034-041-042-053>061-211500-
SOUTHWEST WISCONSIN

CITY           SKY/WX    TMP DP  RH WIND       PRES   REMARKS
LA CROSSE      PTCLDY     8   2  76 SE7       30.34S WCI  -3
SPARTA         PTCLDY    -4  -8  81 CALM      30.34S
VIROQUA        PTCLDY     9   4  78 S10       30.30R WCI  -5
BOSCOBEL       MOCLDY     2  -3  80 E3        30.39S
PRAIRIE DU CHI MOCLDY     7   2  80 CALM      30.37S
PLATTEVILLE    PTCLDY     9   5  85 SE8       30.36F WCI  -4
$$

WIZ056-057-062-063-064-067-068-211500-
SOUTH CENTRAL WISCONSIN

CITY           SKY/WX    TMP DP  RH WIND       PRES   REMARKS
REEDSBURG      PTCLDY     5   0  80 CALM      30.35F
BARABOO/DELLS  PTCLDY     7   2  80 CALM      30.36R
LONE ROCK      PTCLDY     7  -1  70 CALM      30.39F
MINERAL POINT  MOCLDY     9   3  78 SE7       30.34S WCI  -3
MADISON        PTCLDY    11   6  81 S5        30.39R WCI   3
MIDDLETON      PTCLDY    11   4  74 CALM      30.38S
WATERTOWN      CLOUDY     7   2  80 CALM      30.40R
MONROE         MOCLDY    12   7  79 S6        30.37R WCI   3
JANESVILLE     CLEAR      9   3  78 CALM      30.40R
$$

WIZ051-052-058>065-066-070>072-211500-
SOUTHEAST WISCONSIN

CITY           SKY/WX    TMP DP  RH WIND       PRES   REMARKS
MILWAUKEE      MOCLDY    13   2  61 CALM      30.42R
WAUKESHA       CLEAR      7   1  78 CALM      30.40R
MILWAUKEE/TIMM CLEAR      9   1  72 CALM      30.42R
RACINE         PTCLDY    12   1  61 W6        30.43R WCI   3
BURLINGTON     MOCLDY     5   1  82 CALM      30.41R
KENOSHA        MOCLDY    12   5  73 SW5       30.42R WCI   4
FOND DU LAC    MOCLDY     7   0  73 S5        30.38S WCI  -2
SHEBOYGAN      MOCLDY    10   1  67 SW6       30.39R WCI   0
WEST BEND      MOCLDY     9   3  78 CALM      30.38S
JUNEAU         MOCLDY     5   0  78 S5        30.39R WCI  -4
$$

LSZ147-162-211500-
LAKE SUPERIOR

STATION/POSITION TIME  TEMP    WIND        PRES    WAVE
                       AIR SEA DIR/SP/G            HT/PER
                 (UTC) (F)     (DEG/KT/KT) (MB)    (FT/S)
DEVILS ISLAND    1400   16     200/ 10/ 16 1023.2F
PORT WING        1300    9     170/  5/ 10 1022.0
SAXON HARBOR     1340   10     190/  6/ 14 1022.7F
$$

LMZ867-665-643>646-211500-
LAKE MICHIGAN

STATION/POSITION TIME  TEMP    WIND        PRES    WAVE
                       AIR SEA DIR/SP/G            HT/PER
                 (UTC) (F)     (DEG/KT/KT) (MB)    (FT/S)
CHAMBERS ISLAND  1300   15     230/  7/ 10 1027.1R
N MID LAKE BUOY  1350   22 42  290/ 14/ 19 1028.4R   2/ 4
NORTHPORT PIER   1307   14      CALM  /  5 1027.1R
SISTER BAY       1343          250/ 15/ 17   N/A
ALGOMA LAKESHORE 1328          290/  4/  5   N/A
KEWAUNEE LAKESHO 1400    9     280/  5/  6 1027.6R
SHEBOYGAN LAKESH 1400   12 34  260/  7/  8 1031.0R
PORT WASHINGTON  1300   10     290/  6/  8 1030.1
ATWATER BUOY     1400   16     260/ 12/ 14 1030.1R
MILWAUKEE LAKESH 1400   15     270/  4/  6   N/A
S MID LAKE BUOY  1350   24 42  280/  4/  6 1031.4R   3/ 6
KENOSHA   LAKESH 1400   14     270/  6/  7 1030.1R
$$

TC  - TEMPERATURE IN CELSIUS
VSB - VISIBILITY IN STATUTE MILES
WCI - WIND CHILL INDEX
HX  - HEAT INDEX




USA.gov is the U.S. government's official web portal to all federal, state and local government web resources and services.